Year,Month,Day,Hour,Minute,Value (Times are PST for temperature in C)
2014,07,18,00,00,14.30
2014,07,18,00,01,14.20
2014,07,18,00,02,14.20
2014,07,18,00,03,14.20
2014,07,18,00,04,14.20
2014,07,18,00,05,14.20
2014,07,18,00,06,14.20
2014,07,18,00,07,14.20
2014,07,18,00,08,14.20
2014,07,18,00,09,14.20
2014,07,18,00,10,14.10
2014,07,18,00,11,14.10
2014,07,18,00,12,14.10
2014,07,18,00,13,14.10
2014,07,18,00,14,14.10
2014,07,18,00,15,14.10
2014,07,18,00,16,14.10
2014,07,18,00,17,14.10
2014,07,18,00,18,14.10
2014,07,18,00,19,14.10
2014,07,18,00,20,14.10
2014,07,18,00,21,14.10
2014,07,18,00,22,14.10
2014,07,18,00,23,14.10
2014,07,18,00,24,14.10
2014,07,18,00,25,14.10
2014,07,18,00,26,14.10
2014,07,18,00,27,14.10
2014,07,18,00,28,14.00
2014,07,18,00,29,14.00
2014,07,18,00,30,14.00
2014,07,18,00,31,14.00
2014,07,18,00,32,14.00
2014,07,18,00,33,14.00
2014,07,18,00,34,14.00
2014,07,18,00,35,14.00
2014,07,18,00,36,14.00
2014,07,18,00,37,14.00
2014,07,18,00,38,14.00
2014,07,18,00,39,14.00
2014,07,18,00,40,14.00
2014,07,18,00,41,14.00
2014,07,18,00,42,14.00
2014,07,18,00,43,14.00
2014,07,18,00,44,14.00
2014,07,18,00,45,14.00
2014,07,18,00,46,14.00
2014,07,18,00,47,14.00
2014,07,18,00,48,14.00
2014,07,18,00,49,14.00
2014,07,18,00,50,14.00
2014,07,18,00,51,14.00
2014,07,18,00,52,14.00
2014,07,18,00,53,14.00
2014,07,18,00,54,14.00
2014,07,18,00,55,14.00
2014,07,18,00,56,14.00
2014,07,18,00,57,14.00
2014,07,18,00,58,14.00
2014,07,18,00,59,13.90
2014,07,18,01,00,13.90
2014,07,18,01,01,13.90
2014,07,18,01,02,13.90
2014,07,18,01,03,13.90
2014,07,18,01,04,14.00
2014,07,18,01,05,14.00
2014,07,18,01,06,14.00
2014,07,18,01,07,14.00
2014,07,18,01,08,14.00
2014,07,18,01,09,14.00
2014,07,18,01,10,14.00
2014,07,18,01,11,13.90
2014,07,18,01,12,13.90
2014,07,18,01,13,13.90
2014,07,18,01,14,13.90
2014,07,18,01,15,13.90
2014,07,18,01,16,13.90
2014,07,18,01,17,13.90
2014,07,18,01,18,13.90
2014,07,18,01,19,13.90
2014,07,18,01,20,13.90
2014,07,18,01,21,13.80
2014,07,18,01,22,13.80
2014,07,18,01,23,13.80
2014,07,18,01,24,13.80
2014,07,18,01,25,13.80
2014,07,18,01,26,13.80
2014,07,18,01,27,13.80
2014,07,18,01,28,13.80
2014,07,18,01,29,13.80
2014,07,18,01,30,13.80
2014,07,18,01,31,13.80
2014,07,18,01,32,13.80
2014,07,18,01,33,13.80
2014,07,18,01,34,13.80
2014,07,18,01,35,13.80
2014,07,18,01,36,13.80
2014,07,18,01,37,13.80
2014,07,18,01,38,13.80
2014,07,18,01,39,13.80
2014,07,18,01,40,13.80
2014,07,18,01,41,13.80
2014,07,18,01,42,13.70
2014,07,18,01,43,13.70
2014,07,18,01,44,13.70
2014,07,18,01,45,13.70
2014,07,18,01,46,13.70
2014,07,18,01,47,13.70
2014,07,18,01,48,13.70
2014,07,18,01,49,13.70
2014,07,18,01,50,13.70
2014,07,18,01,51,13.70
2014,07,18,01,52,13.70
2014,07,18,01,53,13.70
2014,07,18,01,54,13.70
2014,07,18,01,55,13.70
2014,07,18,01,56,13.70
2014,07,18,01,57,13.70
2014,07,18,01,58,13.80
2014,07,18,01,59,13.70
2014,07,18,02,00,13.70
2014,07,18,02,01,13.70
2014,07,18,02,02,13.70
2014,07,18,02,03,13.70
2014,07,18,02,04,13.70
2014,07,18,02,05,13.70
2014,07,18,02,06,13.70
2014,07,18,02,07,13.70
2014,07,18,02,08,13.70
2014,07,18,02,09,13.70
2014,07,18,02,10,13.70
2014,07,18,02,11,13.70
2014,07,18,02,12,13.70
2014,07,18,02,13,13.70
2014,07,18,02,14,13.70
2014,07,18,02,15,13.70
2014,07,18,02,16,13.70
2014,07,18,02,17,13.70
2014,07,18,02,18,13.70
2014,07,18,02,19,13.70
2014,07,18,02,20,13.70
2014,07,18,02,21,13.70
2014,07,18,02,22,13.70
2014,07,18,02,23,13.70
2014,07,18,02,24,13.60
2014,07,18,02,25,13.60
2014,07,18,02,26,13.60
2014,07,18,02,27,13.60
2014,07,18,02,28,13.60
2014,07,18,02,29,13.50
2014,07,18,02,30,13.50
2014,07,18,02,31,13.50
2014,07,18,02,32,13.40
2014,07,18,02,33,13.40
2014,07,18,02,34,13.40
2014,07,18,02,35,13.40
2014,07,18,02,36,13.40
2014,07,18,02,37,13.40
2014,07,18,02,38,13.30
2014,07,18,02,39,13.30
2014,07,18,02,40,13.30
2014,07,18,02,41,13.30
2014,07,18,02,42,13.30
2014,07,18,02,43,13.30
2014,07,18,02,44,13.30
2014,07,18,02,45,13.30
2014,07,18,02,46,13.30
2014,07,18,02,47,13.20
2014,07,18,02,48,13.20
2014,07,18,02,49,13.20
2014,07,18,02,50,13.20
2014,07,18,02,51,13.10
2014,07,18,02,52,13.10
2014,07,18,02,53,13.10
2014,07,18,02,54,13.10
2014,07,18,02,55,13.10
2014,07,18,02,56,13.10
2014,07,18,02,57,13.00
2014,07,18,02,58,13.00
2014,07,18,02,59,13.00
2014,07,18,03,00,13.00
2014,07,18,03,01,13.00
2014,07,18,03,02,13.00
2014,07,18,03,03,13.00
2014,07,18,03,04,13.00
2014,07,18,03,05,13.00
2014,07,18,03,06,13.00
2014,07,18,03,07,13.00
2014,07,18,03,08,13.00
2014,07,18,03,09,13.00
2014,07,18,03,10,13.00
2014,07,18,03,11,13.00
2014,07,18,03,12,13.10
2014,07,18,03,13,13.10
2014,07,18,03,14,13.10
2014,07,18,03,15,13.10
2014,07,18,03,16,13.10
2014,07,18,03,17,13.00
2014,07,18,03,18,13.00
2014,07,18,03,19,13.00
2014,07,18,03,20,13.00
2014,07,18,03,21,13.00
2014,07,18,03,22,13.00
2014,07,18,03,23,13.00
2014,07,18,03,24,13.00
2014,07,18,03,25,13.00
2014,07,18,03,26,13.00
2014,07,18,03,27,12.90
2014,07,18,03,28,12.90
2014,07,18,03,29,12.90
2014,07,18,03,30,12.90
2014,07,18,03,31,12.90
2014,07,18,03,32,13.00
2014,07,18,03,33,13.00
2014,07,18,03,34,13.10
2014,07,18,03,35,13.10
2014,07,18,03,36,13.20
2014,07,18,03,37,13.20
2014,07,18,03,38,13.30
2014,07,18,03,39,13.30
2014,07,18,03,40,13.30
2014,07,18,03,41,13.30
2014,07,18,03,42,13.30
2014,07,18,03,43,13.40
2014,07,18,03,44,13.40
2014,07,18,03,45,13.40
2014,07,18,03,46,13.30
2014,07,18,03,47,13.30
2014,07,18,03,48,13.30
2014,07,18,03,49,13.30
2014,07,18,03,50,13.30
2014,07,18,03,51,13.20
2014,07,18,03,52,13.20
2014,07,18,03,53,13.20
2014,07,18,03,54,13.20
2014,07,18,03,55,13.20
2014,07,18,03,56,13.20
2014,07,18,03,57,13.20
2014,07,18,03,58,13.20
2014,07,18,03,59,13.20
2014,07,18,04,00,13.20
2014,07,18,04,01,13.20
2014,07,18,04,02,13.10
2014,07,18,04,03,13.10
2014,07,18,04,04,13.10
2014,07,18,04,05,13.10
2014,07,18,04,06,13.10
2014,07,18,04,07,13.10
2014,07,18,04,08,13.10
2014,07,18,04,09,13.10
2014,07,18,04,10,13.20
2014,07,18,04,11,13.20
2014,07,18,04,12,13.20
2014,07,18,04,13,13.20
2014,07,18,04,14,13.20
2014,07,18,04,15,13.20
2014,07,18,04,16,13.20
2014,07,18,04,17,13.20
2014,07,18,04,18,13.20
2014,07,18,04,19,13.10
2014,07,18,04,20,13.10
2014,07,18,04,21,13.10
2014,07,18,04,22,13.10
2014,07,18,04,23,13.10
2014,07,18,04,24,13.10
2014,07,18,04,25,13.00
2014,07,18,04,26,13.00
2014,07,18,04,27,12.90
2014,07,18,04,28,12.90
2014,07,18,04,29,12.90
2014,07,18,04,30,12.80
2014,07,18,04,31,12.80
2014,07,18,04,32,12.80
2014,07,18,04,33,12.80
2014,07,18,04,34,12.80
2014,07,18,04,35,12.80
2014,07,18,04,36,12.70
2014,07,18,04,37,12.70
2014,07,18,04,38,12.70
2014,07,18,04,39,12.70
2014,07,18,04,40,12.70
2014,07,18,04,41,12.60
2014,07,18,04,42,12.60
2014,07,18,04,43,12.60
2014,07,18,04,44,12.50
2014,07,18,04,45,12.50
2014,07,18,04,46,12.50
2014,07,18,04,47,12.50
2014,07,18,04,48,12.40
2014,07,18,04,49,12.40
2014,07,18,04,50,12.40
2014,07,18,04,51,12.30
2014,07,18,04,52,12.30
2014,07,18,04,53,12.30
2014,07,18,04,54,12.30
2014,07,18,04,55,12.30
2014,07,18,04,56,12.30
2014,07,18,04,57,12.30
2014,07,18,04,58,12.20
2014,07,18,04,59,12.20
2014,07,18,05,00,12.20
2014,07,18,05,01,12.10
2014,07,18,05,02,12.10
2014,07,18,05,03,12.10
2014,07,18,05,04,12.10
2014,07,18,05,05,12.00
2014,07,18,05,06,12.00
2014,07,18,05,07,12.00
2014,07,18,05,08,12.00
2014,07,18,05,09,12.00
2014,07,18,05,10,12.00
2014,07,18,05,11,12.00
2014,07,18,05,12,12.00
2014,07,18,05,13,12.00
2014,07,18,05,14,11.90
2014,07,18,05,15,11.90
2014,07,18,05,16,11.90
2014,07,18,05,17,11.90
2014,07,18,05,18,11.90
2014,07,18,05,19,11.90
2014,07,18,05,20,11.90
2014,07,18,05,21,11.80
2014,07,18,05,22,11.80
2014,07,18,05,23,11.80
2014,07,18,05,24,11.80
2014,07,18,05,25,11.80
2014,07,18,05,26,11.80
2014,07,18,05,27,11.80
2014,07,18,05,28,11.80
2014,07,18,05,29,11.70
2014,07,18,05,30,11.70
2014,07,18,05,31,11.60
2014,07,18,05,32,11.60
2014,07,18,05,33,11.60
2014,07,18,05,34,11.60
2014,07,18,05,35,11.60
2014,07,18,05,36,11.60
2014,07,18,05,37,11.60
2014,07,18,05,38,11.60
2014,07,18,05,39,11.60
2014,07,18,05,40,11.60
2014,07,18,05,41,11.60
2014,07,18,05,42,11.60
2014,07,18,05,43,11.60
2014,07,18,05,44,11.60
2014,07,18,05,45,11.60
2014,07,18,05,46,11.60
2014,07,18,05,47,11.60
2014,07,18,05,48,11.50
2014,07,18,05,49,11.60
2014,07,18,05,50,11.60
2014,07,18,05,51,11.60
2014,07,18,05,52,11.60
2014,07,18,05,53,11.60
2014,07,18,05,54,11.60
2014,07,18,05,55,11.60
2014,07,18,05,56,11.60
2014,07,18,05,57,11.60
2014,07,18,05,58,11.60
2014,07,18,05,59,11.60
2014,07,18,06,00,11.60
2014,07,18,06,01,11.60
2014,07,18,06,02,11.60
2014,07,18,06,03,11.60
2014,07,18,06,04,11.60
2014,07,18,06,05,11.60
2014,07,18,06,06,11.60
2014,07,18,06,07,11.70
2014,07,18,06,08,11.70
2014,07,18,06,09,11.70
2014,07,18,06,10,11.80
2014,07,18,06,11,11.80
2014,07,18,06,12,11.80
2014,07,18,06,13,11.80
2014,07,18,06,14,11.80
2014,07,18,06,15,11.90
2014,07,18,06,16,11.90
2014,07,18,06,17,11.90
2014,07,18,06,18,12.00
2014,07,18,06,19,12.00
2014,07,18,06,20,12.00
2014,07,18,06,21,12.10
2014,07,18,06,22,12.10
2014,07,18,06,23,12.10
2014,07,18,06,24,12.10
2014,07,18,06,25,12.20
2014,07,18,06,26,12.20
2014,07,18,06,27,12.20
2014,07,18,06,28,12.20
2014,07,18,06,29,12.20
2014,07,18,06,30,12.20
2014,07,18,06,31,12.20
2014,07,18,06,32,12.30
2014,07,18,06,33,12.30
2014,07,18,06,34,12.30
2014,07,18,06,35,12.30
2014,07,18,06,36,12.40
2014,07,18,06,37,12.40
2014,07,18,06,38,12.40
2014,07,18,06,39,12.50
2014,07,18,06,40,12.50
2014,07,18,06,41,12.60
2014,07,18,06,42,12.70
2014,07,18,06,43,12.70
2014,07,18,06,44,12.80
2014,07,18,06,45,12.80
2014,07,18,06,46,12.80
2014,07,18,06,47,12.80
2014,07,18,06,48,12.80
2014,07,18,06,49,12.80
2014,07,18,06,50,12.90
2014,07,18,06,51,12.90
2014,07,18,06,52,12.90
2014,07,18,06,53,13.00
2014,07,18,06,54,13.00
2014,07,18,06,55,13.10
2014,07,18,06,56,13.10
2014,07,18,06,57,13.20
2014,07,18,06,58,13.20
2014,07,18,06,59,13.20
2014,07,18,07,00,13.30
2014,07,18,07,01,13.30
2014,07,18,07,02,13.30
2014,07,18,07,03,13.30
2014,07,18,07,04,13.40
2014,07,18,07,05,13.50
2014,07,18,07,06,13.50
2014,07,18,07,07,13.50
2014,07,18,07,08,13.60
2014,07,18,07,09,13.70
2014,07,18,07,10,13.70
2014,07,18,07,11,13.80
2014,07,18,07,12,13.80
2014,07,18,07,13,13.90
2014,07,18,07,14,13.90
2014,07,18,07,15,14.00
2014,07,18,07,16,14.00
2014,07,18,07,17,14.10
2014,07,18,07,18,14.20
2014,07,18,07,19,14.20
2014,07,18,07,20,14.20
2014,07,18,07,21,14.40
2014,07,18,07,22,14.40
2014,07,18,07,23,14.50
2014,07,18,07,24,14.50
2014,07,18,07,25,14.50
2014,07,18,07,26,14.60
2014,07,18,07,27,14.60
2014,07,18,07,28,14.60
2014,07,18,07,29,14.60
2014,07,18,07,30,14.60
2014,07,18,07,31,14.60
2014,07,18,07,32,14.60
2014,07,18,07,33,14.60
2014,07,18,07,34,14.70
2014,07,18,07,35,14.70
2014,07,18,07,36,14.80
2014,07,18,07,37,14.80
2014,07,18,07,38,14.80
2014,07,18,07,39,14.80
2014,07,18,07,40,14.80
2014,07,18,07,41,14.80
2014,07,18,07,42,14.80
2014,07,18,07,43,14.80
2014,07,18,07,44,14.90
2014,07,18,07,45,14.90
2014,07,18,07,46,15.00
2014,07,18,07,47,15.00
2014,07,18,07,48,15.00
2014,07,18,07,49,15.10
2014,07,18,07,50,15.10
2014,07,18,07,51,15.10
2014,07,18,07,52,15.20
2014,07,18,07,53,15.20
2014,07,18,07,54,15.20
2014,07,18,07,55,15.20
2014,07,18,07,56,15.20
2014,07,18,07,57,15.20
2014,07,18,07,58,15.30
2014,07,18,07,59,15.30
2014,07,18,08,00,15.20
2014,07,18,08,01,15.20
2014,07,18,08,02,15.20
2014,07,18,08,03,15.20
2014,07,18,08,04,15.20
2014,07,18,08,05,15.30
2014,07,18,08,06,15.30
2014,07,18,08,07,15.40
2014,07,18,08,08,15.40
2014,07,18,08,09,15.50
2014,07,18,08,10,15.50
2014,07,18,08,11,15.60
2014,07,18,08,12,15.60
2014,07,18,08,13,15.60
2014,07,18,08,14,15.60
2014,07,18,08,15,15.70
2014,07,18,08,16,15.70
2014,07,18,08,17,15.70
2014,07,18,08,18,15.70
2014,07,18,08,19,15.70
2014,07,18,08,20,15.70
2014,07,18,08,21,15.80
2014,07,18,08,22,15.70
2014,07,18,08,23,15.70
2014,07,18,08,24,15.80
2014,07,18,08,25,15.80
2014,07,18,08,26,15.80
2014,07,18,08,27,15.90
2014,07,18,08,28,15.90
2014,07,18,08,29,15.80
2014,07,18,08,30,15.90
2014,07,18,08,31,15.90
2014,07,18,08,32,15.90
2014,07,18,08,33,15.90
2014,07,18,08,34,15.90
2014,07,18,08,35,15.90
2014,07,18,08,36,15.90
2014,07,18,08,37,15.90
2014,07,18,08,38,16.00
2014,07,18,08,39,16.10
2014,07,18,08,40,16.10
2014,07,18,08,41,16.10
2014,07,18,08,42,16.10
2014,07,18,08,43,16.20
2014,07,18,08,44,16.30
2014,07,18,08,45,16.30
2014,07,18,08,46,16.30
2014,07,18,08,47,16.20
2014,07,18,08,48,16.20
2014,07,18,08,49,16.10
2014,07,18,08,50,16.10
2014,07,18,08,51,16.10
2014,07,18,08,52,16.20
2014,07,18,08,53,16.30
2014,07,18,08,54,16.30
2014,07,18,08,55,16.40
2014,07,18,08,56,16.60
2014,07,18,08,57,16.60
2014,07,18,08,58,16.60
2014,07,18,08,59,16.70
2014,07,18,09,00,16.70
2014,07,18,09,01,16.80
2014,07,18,09,02,16.80
2014,07,18,09,03,16.90
2014,07,18,09,04,17.00
2014,07,18,09,05,17.00
2014,07,18,09,06,17.10
2014,07,18,09,07,17.20
2014,07,18,09,08,17.10
2014,07,18,09,09,17.10
2014,07,18,09,10,17.20
2014,07,18,09,11,17.20
2014,07,18,09,12,17.20
2014,07,18,09,13,17.20
2014,07,18,09,14,17.20
2014,07,18,09,15,17.20
2014,07,18,09,16,17.20
2014,07,18,09,17,17.10
2014,07,18,09,18,17.10
2014,07,18,09,19,17.00
2014,07,18,09,20,16.90
2014,07,18,09,21,16.90
2014,07,18,09,22,16.90
2014,07,18,09,23,16.80
2014,07,18,09,24,16.80
2014,07,18,09,25,16.80
2014,07,18,09,26,16.80
2014,07,18,09,27,16.80
2014,07,18,09,28,16.90
2014,07,18,09,29,16.90
2014,07,18,09,30,17.00
2014,07,18,09,31,17.00
2014,07,18,09,32,17.10
2014,07,18,09,33,17.30
2014,07,18,09,34,17.40
2014,07,18,09,35,17.50
2014,07,18,09,36,17.60
2014,07,18,09,37,17.70
2014,07,18,09,38,17.70
2014,07,18,09,39,17.70
2014,07,18,09,40,17.70
2014,07,18,09,41,17.80
2014,07,18,09,42,17.80
2014,07,18,09,43,17.80
2014,07,18,09,44,17.90
2014,07,18,09,45,17.90
2014,07,18,09,46,17.90
2014,07,18,09,47,18.00
2014,07,18,09,48,18.10
2014,07,18,09,49,18.20
2014,07,18,09,50,18.30
2014,07,18,09,51,18.40
2014,07,18,09,52,18.50
2014,07,18,09,53,18.50
2014,07,18,09,54,18.30
2014,07,18,09,55,18.20
2014,07,18,09,56,18.10
2014,07,18,09,57,18.10
2014,07,18,09,58,18.10
2014,07,18,09,59,18.10
2014,07,18,10,00,18.20
2014,07,18,10,01,18.30
2014,07,18,10,02,18.50
2014,07,18,10,03,18.70
2014,07,18,10,04,18.80
2014,07,18,10,05,18.90
2014,07,18,10,06,18.90
2014,07,18,10,07,18.90
2014,07,18,10,08,18.90
2014,07,18,10,09,19.10
2014,07,18,10,10,19.10
2014,07,18,10,11,19.10
2014,07,18,10,12,19.10
2014,07,18,10,13,19.10
2014,07,18,10,14,19.10
2014,07,18,10,15,19.10
2014,07,18,10,16,19.10
2014,07,18,10,17,19.10
2014,07,18,10,18,19.10
2014,07,18,10,19,19.00
2014,07,18,10,20,18.90
2014,07,18,10,21,18.90
2014,07,18,10,22,19.00
2014,07,18,10,23,19.10
2014,07,18,10,24,19.10
2014,07,18,10,25,19.00
2014,07,18,10,26,18.90
2014,07,18,10,27,18.90
2014,07,18,10,28,18.90
2014,07,18,10,29,18.90
2014,07,18,10,30,18.90
2014,07,18,10,31,18.80
2014,07,18,10,32,18.80
2014,07,18,10,33,18.80
2014,07,18,10,34,18.90
2014,07,18,10,35,18.80
2014,07,18,10,36,18.70
2014,07,18,10,37,18.60
2014,07,18,10,38,18.50
2014,07,18,10,39,18.50
2014,07,18,10,40,18.60
2014,07,18,10,41,18.80
2014,07,18,10,42,18.80
2014,07,18,10,43,18.80
2014,07,18,10,44,18.70
2014,07,18,10,45,18.60
2014,07,18,10,46,18.50
2014,07,18,10,47,18.50
2014,07,18,10,48,18.60
2014,07,18,10,49,18.60
2014,07,18,10,50,18.40
2014,07,18,10,51,18.30
2014,07,18,10,52,18.20
2014,07,18,10,53,18.20
2014,07,18,10,54,18.20
2014,07,18,10,55,18.20
2014,07,18,10,56,18.20
2014,07,18,10,57,18.20
2014,07,18,10,58,18.20
2014,07,18,10,59,18.20
2014,07,18,11,00,18.20
2014,07,18,11,01,18.10
2014,07,18,11,02,18.00
2014,07,18,11,03,17.90
2014,07,18,11,04,17.90
2014,07,18,11,05,17.80
2014,07,18,11,06,17.70
2014,07,18,11,07,17.60
2014,07,18,11,08,17.60
2014,07,18,11,09,17.50
2014,07,18,11,10,17.50
2014,07,18,11,11,17.60
2014,07,18,11,12,17.60
2014,07,18,11,13,17.60
2014,07,18,11,14,17.60
2014,07,18,11,15,17.50
2014,07,18,11,16,17.40
2014,07,18,11,17,17.20
2014,07,18,11,18,17.10
2014,07,18,11,19,17.10
2014,07,18,11,20,17.20
2014,07,18,11,21,17.20
2014,07,18,11,22,17.20
2014,07,18,11,23,17.00
2014,07,18,11,24,16.90
2014,07,18,11,25,16.80
2014,07,18,11,26,16.80
2014,07,18,11,27,16.80
2014,07,18,11,28,16.80
2014,07,18,11,29,16.90
2014,07,18,11,30,16.90
2014,07,18,11,31,16.90
2014,07,18,11,32,17.00
2014,07,18,11,33,17.00
2014,07,18,11,34,17.10
2014,07,18,11,35,17.10
2014,07,18,11,36,17.30
2014,07,18,11,37,17.40
2014,07,18,11,38,17.40
2014,07,18,11,39,17.40
2014,07,18,11,40,17.40
2014,07,18,11,41,17.40
2014,07,18,11,42,17.40
2014,07,18,11,43,17.30
2014,07,18,11,44,17.20
2014,07,18,11,45,17.20
2014,07,18,11,46,17.10
2014,07,18,11,47,17.10
2014,07,18,11,48,17.10
2014,07,18,11,49,17.10
2014,07,18,11,50,17.10
2014,07,18,11,51,17.20
2014,07,18,11,52,17.40
2014,07,18,11,53,17.50
2014,07,18,11,54,17.50
2014,07,18,11,55,17.50
2014,07,18,11,56,17.40
2014,07,18,11,57,17.30
2014,07,18,11,58,17.30
2014,07,18,11,59,17.20
2014,07,18,12,00,17.00
2014,07,18,12,01,17.00
2014,07,18,12,02,16.90
2014,07,18,12,03,16.80
2014,07,18,12,04,16.90
2014,07,18,12,05,17.00
2014,07,18,12,06,17.10
2014,07,18,12,07,17.10
2014,07,18,12,08,17.00
2014,07,18,12,09,17.00
2014,07,18,12,10,16.90
2014,07,18,12,11,16.90
2014,07,18,12,12,16.90
2014,07,18,12,13,17.00
2014,07,18,12,14,17.10
2014,07,18,12,15,17.20
2014,07,18,12,16,17.30
2014,07,18,12,17,17.30
2014,07,18,12,18,17.40
2014,07,18,12,19,17.50
2014,07,18,12,20,17.50
2014,07,18,12,21,17.50
2014,07,18,12,22,17.40
2014,07,18,12,23,17.20
2014,07,18,12,24,17.00
2014,07,18,12,25,16.90
2014,07,18,12,26,16.70
2014,07,18,12,27,16.70
2014,07,18,12,28,16.50
2014,07,18,12,29,16.30
2014,07,18,12,30,16.30
2014,07,18,12,31,16.30
2014,07,18,12,32,16.20
2014,07,18,12,33,16.10
2014,07,18,12,34,16.00
2014,07,18,12,35,15.90
2014,07,18,12,36,15.90
2014,07,18,12,37,16.00
2014,07,18,12,38,16.20
2014,07,18,12,39,16.30
2014,07,18,12,40,16.40
2014,07,18,12,41,16.50
2014,07,18,12,42,16.60
2014,07,18,12,43,16.70
2014,07,18,12,44,16.70
2014,07,18,12,45,16.80
2014,07,18,12,46,16.90
2014,07,18,12,47,17.00
2014,07,18,12,48,17.10
2014,07,18,12,49,17.10
2014,07,18,12,50,17.20
2014,07,18,12,51,17.30
2014,07,18,12,52,17.30
2014,07,18,12,53,17.40
2014,07,18,12,54,17.50
2014,07,18,12,55,17.70
2014,07,18,12,56,17.70
2014,07,18,12,57,17.90
2014,07,18,12,58,18.00
2014,07,18,12,59,17.90
2014,07,18,13,00,17.90
2014,07,18,13,01,17.90
2014,07,18,13,02,17.90
2014,07,18,13,03,17.90
2014,07,18,13,04,18.00
2014,07,18,13,05,18.10
2014,07,18,13,06,18.20
2014,07,18,13,07,18.30
2014,07,18,13,08,18.30
2014,07,18,13,09,18.20
2014,07,18,13,10,18.20
2014,07,18,13,11,18.20
2014,07,18,13,12,18.20
2014,07,18,13,13,18.20
2014,07,18,13,14,18.20
2014,07,18,13,15,18.30
2014,07,18,13,16,18.20
2014,07,18,13,17,18.20
2014,07,18,13,18,18.10
2014,07,18,13,19,18.10
2014,07,18,13,20,18.20
2014,07,18,13,21,18.20
2014,07,18,13,22,18.10
2014,07,18,13,23,18.10
2014,07,18,13,24,18.10
2014,07,18,13,25,17.90
2014,07,18,13,26,17.90
2014,07,18,13,27,17.90
2014,07,18,13,28,17.90
2014,07,18,13,29,17.90
2014,07,18,13,30,17.80
2014,07,18,13,31,17.80
2014,07,18,13,32,17.70
2014,07,18,13,33,17.50
2014,07,18,13,34,17.50
2014,07,18,13,35,17.50
2014,07,18,13,36,17.50
2014,07,18,13,37,17.60
2014,07,18,13,38,17.70
2014,07,18,13,39,17.70
2014,07,18,13,40,17.60
2014,07,18,13,41,17.70
2014,07,18,13,42,17.80
2014,07,18,13,43,17.70
2014,07,18,13,44,17.70
2014,07,18,13,45,17.80
2014,07,18,13,46,17.90
2014,07,18,13,47,17.90
2014,07,18,13,48,17.80
2014,07,18,13,49,17.70
2014,07,18,13,50,17.70
2014,07,18,13,51,17.80
2014,07,18,13,52,17.90
2014,07,18,13,53,17.90
2014,07,18,13,54,18.00
2014,07,18,13,55,18.10
2014,07,18,13,56,18.10
2014,07,18,13,57,18.00
2014,07,18,13,58,17.90
2014,07,18,13,59,17.90
2014,07,18,14,00,17.90
2014,07,18,14,01,17.80
2014,07,18,14,02,17.90
2014,07,18,14,03,17.90
2014,07,18,14,04,17.90
2014,07,18,14,05,17.90
2014,07,18,14,06,17.90
2014,07,18,14,07,17.90
2014,07,18,14,08,17.90
2014,07,18,14,09,18.10
2014,07,18,14,10,18.10
2014,07,18,14,11,18.10
2014,07,18,14,12,18.00
2014,07,18,14,13,18.00
2014,07,18,14,14,18.10
2014,07,18,14,15,18.10
2014,07,18,14,16,18.10
2014,07,18,14,17,18.20
2014,07,18,14,18,18.30
2014,07,18,14,19,18.40
2014,07,18,14,20,18.30
2014,07,18,14,21,18.20
2014,07,18,14,22,18.20
2014,07,18,14,23,18.30
2014,07,18,14,24,18.30
2014,07,18,14,25,18.10
2014,07,18,14,26,18.10
2014,07,18,14,27,18.10
2014,07,18,14,28,18.00
2014,07,18,14,29,17.90
2014,07,18,14,30,17.90
2014,07,18,14,31,17.90
2014,07,18,14,32,17.80
2014,07,18,14,33,17.70
2014,07,18,14,34,17.70
2014,07,18,14,35,17.70
2014,07,18,14,36,17.80
2014,07,18,14,37,17.90
2014,07,18,14,38,18.00
2014,07,18,14,39,18.20
2014,07,18,14,40,18.00
2014,07,18,14,41,18.10
2014,07,18,14,42,18.10
2014,07,18,14,43,18.10
2014,07,18,14,44,18.10
2014,07,18,14,45,18.20
2014,07,18,14,46,18.20
2014,07,18,14,47,18.40
2014,07,18,14,48,18.50
2014,07,18,14,49,18.40
2014,07,18,14,50,18.40
2014,07,18,14,51,18.40
2014,07,18,14,52,18.50
2014,07,18,14,53,18.60
2014,07,18,14,54,18.70
2014,07,18,14,55,18.80
2014,07,18,14,56,18.70
2014,07,18,14,57,18.60
2014,07,18,14,58,18.50
2014,07,18,14,59,18.60
2014,07,18,15,00,18.60
2014,07,18,15,01,18.60
2014,07,18,15,02,18.40
2014,07,18,15,03,18.40
2014,07,18,15,04,18.40
2014,07,18,15,05,18.40
2014,07,18,15,06,18.20
2014,07,18,15,07,18.10
2014,07,18,15,08,17.90
2014,07,18,15,09,17.80
2014,07,18,15,10,17.80
2014,07,18,15,11,17.70
2014,07,18,15,12,17.60
2014,07,18,15,13,17.40
2014,07,18,15,14,17.30
2014,07,18,15,15,17.30
2014,07,18,15,16,17.30
2014,07,18,15,17,17.20
2014,07,18,15,18,17.20
2014,07,18,15,19,17.10
2014,07,18,15,20,17.10
2014,07,18,15,21,17.10
2014,07,18,15,22,17.10
2014,07,18,15,23,17.20
2014,07,18,15,24,17.30
2014,07,18,15,25,17.30
2014,07,18,15,26,17.30
2014,07,18,15,27,17.30
2014,07,18,15,28,17.40
2014,07,18,15,29,17.50
2014,07,18,15,30,17.50
2014,07,18,15,31,17.60
2014,07,18,15,32,17.70
2014,07,18,15,33,17.90
2014,07,18,15,34,17.90
2014,07,18,15,35,17.90
2014,07,18,15,36,17.90
2014,07,18,15,37,18.10
2014,07,18,15,38,18.10
2014,07,18,15,39,18.00
2014,07,18,15,40,18.00
2014,07,18,15,41,17.90
2014,07,18,15,42,17.90
2014,07,18,15,43,17.90
2014,07,18,15,44,17.90
2014,07,18,15,45,17.90
2014,07,18,15,46,17.90
2014,07,18,15,47,17.90
2014,07,18,15,48,18.00
2014,07,18,15,49,18.10
2014,07,18,15,50,18.10
2014,07,18,15,51,18.20
2014,07,18,15,52,18.30
2014,07,18,15,53,18.40
2014,07,18,15,54,18.50
2014,07,18,15,55,18.50
2014,07,18,15,56,18.50
2014,07,18,15,57,18.60
2014,07,18,15,58,18.60
2014,07,18,15,59,18.70
2014,07,18,16,00,18.70
2014,07,18,16,01,18.70
2014,07,18,16,02,18.60
2014,07,18,16,03,18.50
2014,07,18,16,04,18.50
2014,07,18,16,05,18.40
2014,07,18,16,06,18.30
2014,07,18,16,07,18.30
2014,07,18,16,08,18.20
2014,07,18,16,09,18.20
2014,07,18,16,10,18.20
2014,07,18,16,11,18.30
2014,07,18,16,12,18.30
2014,07,18,16,13,18.40
2014,07,18,16,14,18.40
2014,07,18,16,15,18.50
2014,07,18,16,16,18.60
2014,07,18,16,17,18.70
2014,07,18,16,18,18.80
2014,07,18,16,19,19.00
2014,07,18,16,20,19.10
2014,07,18,16,21,19.30
2014,07,18,16,22,19.50
2014,07,18,16,23,19.60
2014,07,18,16,24,19.80
2014,07,18,16,25,20.00
2014,07,18,16,26,20.20
2014,07,18,16,27,20.40
2014,07,18,16,28,20.70
2014,07,18,16,29,21.00
2014,07,18,16,30,21.20
2014,07,18,16,31,21.50
2014,07,18,16,32,21.80
2014,07,18,16,33,22.00
2014,07,18,16,34,22.30
2014,07,18,16,35,22.50
2014,07,18,16,36,22.70
2014,07,18,16,37,22.80
2014,07,18,16,38,23.00
2014,07,18,16,39,23.20
2014,07,18,16,40,23.30
2014,07,18,16,41,23.50
2014,07,18,16,42,23.70
2014,07,18,16,43,23.70
2014,07,18,16,44,23.70
2014,07,18,16,45,23.70
2014,07,18,16,46,23.70
2014,07,18,16,47,23.70
2014,07,18,16,48,23.60
2014,07,18,16,49,23.60
2014,07,18,16,50,23.70
2014,07,18,16,51,23.70
2014,07,18,16,52,23.80
2014,07,18,16,53,23.80
2014,07,18,16,54,23.90
2014,07,18,16,55,24.00
2014,07,18,16,56,24.10
2014,07,18,16,57,24.10
2014,07,18,16,58,24.10
2014,07,18,16,59,24.10
2014,07,18,17,00,24.10
2014,07,18,17,01,24.10
2014,07,18,17,02,24.10
2014,07,18,17,03,24.00
2014,07,18,17,04,23.90
2014,07,18,17,05,24.00
2014,07,18,17,06,24.10
2014,07,18,17,07,24.10
2014,07,18,17,08,24.10
2014,07,18,17,09,24.10
2014,07,18,17,10,24.00
2014,07,18,17,11,23.90
2014,07,18,17,12,23.80
2014,07,18,17,13,23.70
2014,07,18,17,14,23.60
2014,07,18,17,15,23.50
2014,07,18,17,16,23.40
2014,07,18,17,17,23.40
2014,07,18,17,18,23.30
2014,07,18,17,19,23.50